timestamp,surface_pressure_avg,surface_temp_avg,battery_voltage,lat,long
2018-06-21 00:00:00+00:00,218.1598,7.1,13.29,47.84626,-54.09684
2018-06-21 00:10:00+00:00,224.9465,7.1,13.21,47.84626,-54.09684
2018-06-21 00:20:00+00:00,230.1198,7.1,13.21,47.84626,-54.09684
2018-06-21 00:30:00+00:00,228.7264,7.2,13.21,47.84626,-54.09684
2018-06-21 00:40:00+00:00,231.1798,7.35,13.21,47.84626,-54.09684
2018-06-21 00:50:00+00:00,235.4431,7.46,13.21,47.84626,-54.09684
2018-06-21 01:00:00+00:00,234.8898,7.49,13.13,47.84626,-54.09684
2018-06-21 01:10:00+00:00,229.3014,7.47,13.05,47.84626,-54.09684
2018-06-21 01:20:00+00:00,231.3214,7.47,13.13,47.84626,-54.09684
2018-06-21 01:30:00+00:00,236.8297,7.48,13.13,47.84626,-54.09684
2018-06-21 01:40:00+00:00,237.6881,7.43,13.13,47.84626,-54.09684
2018-06-21 01:50:00+00:00,235.6698,7.4,13.13,47.84626,-54.09684
2018-06-21 02:00:00+00:00,242.6148,7.4,13.05,47.84626,-54.09684
2018-06-21 02:10:00+00:00,254.0147,7.4,12.97,47.84626,-54.09684
2018-06-21 02:20:00+00:00,258.0781,7.4,13.05,47.84626,-54.09684
2018-06-21 02:30:00+00:00,258.7364,7.39,13.05,47.84626,-54.09684
2018-06-21 02:40:00+00:00,266.463,7.39,13.13,47.84626,-54.09684
2018-06-21 02:50:00+00:00,272.8047,7.4,13.13,47.84626,-54.09684
2018-06-21 03:00:00+00:00,273.9414,7.4,13.05,47.84626,-54.09684
2018-06-21 03:10:00+00:00,277.093,7.49,12.97,47.84626,-54.09684
2018-06-21 03:20:00+00:00,283.9847,7.48,13.05,47.84626,-54.09684
2018-06-21 03:30:00+00:00,290.1747,7.5,13.05,47.84626,-54.09684
2018-06-21 03:40:00+00:00,298.323,7.48,13.05,47.84626,-54.09684
2018-06-21 03:50:00+00:00,309.6364,7.4,13.05,47.84626,-54.09684
2018-06-21 04:00:00+00:00,315.538,7.45,13.05,47.84626,-54.09684
2018-06-21 04:10:00+00:00,318.3497,7.5,12.97,47.84626,-54.09684
2018-06-21 04:20:00+00:00,323.2213,7.4,13.05,47.84626,-54.09684
2018-06-21 04:30:00+00:00,326.3929,7.3,13.05,47.84626,-54.09684
2018-06-21 04:40:00+00:00,328.3597,7.3,13.05,47.84626,-54.09684
2018-06-21 04:50:00+00:00,333.3246,7.3,13.05,47.84626,-54.09684
2018-06-21 05:00:00+00:00,338.798,7.3,13.05,47.84626,-54.09684
2018-06-21 05:10:00+00:00,341.2079,7.3,12.97,47.84626,-54.09684
2018-06-21 05:20:00+00:00,340.6263,7.3,13.05,47.84626,-54.09684
2018-06-21 05:30:00+00:00,341.283,7.3,13.05,47.84626,-54.09684
2018-06-21 05:40:00+00:00,343.878,7.3,13.05,47.84626,-54.09684
2018-06-21 05:50:00+00:00,344.2997,7.3,13.05,47.84626,-54.09684
2018-06-21 06:00:00+00:00,342.538,7.3,12.97,47.84626,-54.09684
2018-06-21 06:10:00+00:00,344.5313,7.32,12.97,47.84626,-54.09684
2018-06-21 06:20:00+00:00,347.8863,7.33,12.97,47.84626,-54.09684
2018-06-21 06:30:00+00:00,347.2596,7.31,12.97,47.84626,-54.09684
2018-06-21 06:40:00+00:00,343.4397,7.32,13.05,47.84626,-54.09684
2018-06-21 06:50:00+00:00,344.4197,7.3,13.05,47.84626,-54.09684
2018-06-21 07:00:00+00:00,342.6962,7.3,12.97,47.84626,-54.09684
2018-06-21 07:10:00+00:00,336.3297,7.3,12.89,47.84626,-54.09684
2018-06-21 07:20:00+00:00,332.9564,7.29,12.97,47.84626,-54.09684
2018-06-21 07:30:00+00:00,332.6913,7.2,12.97,47.84626,-54.09684
2018-06-21 07:40:00+00:00,324.8746,7.2,13.05,47.84626,-54.09684
2018-06-21 07:50:00+00:00,315.8846,7.3,13.05,47.84626,-54.09684
2018-06-21 08:00:00+00:00,311.3113,7.2,12.97,47.84626,-54.09684
2018-06-21 08:10:00+00:00,305.7714,7.2,12.89,47.84626,-54.09684
2018-06-21 08:20:00+00:00,294.3979,7.21,12.97,47.84626,-54.09684
2018-06-21 08:30:00+00:00,290.0547,7.2,12.97,47.84626,-54.09684
2018-06-21 08:40:00+00:00,289.0863,7.2,13.05,47.84626,-54.09684
2018-06-21 08:50:00+00:00,278.8197,7.27,13.05,47.84626,-54.09684
2018-06-21 09:00:00+00:00,264.9948,7.3,13.05,47.84626,-54.09684
2018-06-21 09:10:00+00:00,263.178,7.3,12.97,47.84626,-54.09684
2018-06-21 09:20:00+00:00,260.1598,7.3,13.05,47.84626,-54.09684
2018-06-21 09:30:00+00:00,251.6664,7.35,13.13,47.84626,-54.09684
2018-06-21 09:40:00+00:00,244.1315,7.39,13.21,47.84626,-54.09684
2018-06-21 09:50:00+00:00,242.5264,7.4,13.29,47.84626,-54.09684
2018-06-21 10:00:00+00:00,237.8564,7.4,13.37,47.84626,-54.09684
2018-06-21 10:10:00+00:00,232.4214,7.4,13.44,47.84626,-54.09684
2018-06-21 10:20:00+00:00,228.5781,7.48,13.84,47.84626,-54.09684
2018-06-21 10:30:00+00:00,225.9381,7.5,14.0,47.84626,-54.09684
2018-06-21 10:40:00+00:00,222.5664,7.51,14.24,47.84626,-54.09684
2018-06-21 10:50:00+00:00,219.7948,7.58,14.48,47.84626,-54.09684
2018-06-21 11:00:00+00:00,217.6381,7.6,14.64,47.84626,-54.09684
2018-06-21 11:10:00+00:00,214.1831,7.63,14.56,47.84626,-54.09684
2018-06-21 11:20:00+00:00,212.8814,7.69,15.83,47.84626,-54.09684
2018-06-21 11:30:00+00:00,215.0948,7.67,15.11,47.84626,-54.09684
2018-06-21 11:40:00+00:00,216.3748,7.6,15.11,47.84626,-54.09684
2018-06-21 11:50:00+00:00,219.3531,7.6,15.04,47.84626,-54.09684
2018-06-21 12:00:00+00:00,221.9964,7.6,14.56,47.84626,-54.09684
2018-06-21 12:10:00+00:00,221.3448,7.6,14.56,47.84626,-54.09684
2018-06-21 12:20:00+00:00,217.9598,7.6,14.8,47.84626,-54.09684
2018-06-21 12:30:00+00:00,219.8898,7.6,14.72,47.84626,-54.09684
2018-06-21 12:40:00+00:00,225.1448,7.65,14.8,47.84626,-54.09684
2018-06-21 12:50:00+00:00,224.6248,7.7,14.64,47.84626,-54.09684
2018-06-21 13:00:00+00:00,222.4814,7.77,14.48,47.84626,-54.09684
2018-06-21 13:10:00+00:00,227.7515,7.8,14.4,47.84626,-54.09684
2018-06-21 13:20:00+00:00,231.4364,7.74,14.48,47.84626,-54.09684
2018-06-21 13:30:00+00:00,227.1031,7.7,14.64,47.84626,-54.09684
2018-06-21 13:40:00+00:00,227.1497,7.78,14.64,47.84626,-54.09684
2018-06-21 13:50:00+00:00,233.9247,7.7,14.72,47.84626,-54.09684
2018-06-21 14:00:00+00:00,234.7348,7.6,14.64,47.84626,-54.09684
2018-06-21 14:10:00+00:00,232.663,7.65,14.64,47.84626,-54.09684
2018-06-21 14:20:00+00:00,234.7414,7.6,14.64,47.84626,-54.09684
2018-06-21 14:30:00+00:00,241.5464,7.6,14.72,47.84626,-54.09684
2018-06-21 14:40:00+00:00,246.2414,7.59,14.64,47.84626,-54.09684
2018-06-21 14:50:00+00:00,251.5014,7.6,14.64,47.84626,-54.09684
2018-06-21 15:00:00+00:00,258.1364,7.56,14.48,47.84626,-54.09684
2018-06-21 15:10:00+00:00,267.2398,7.55,14.48,47.84626,-54.09684
2018-06-21 15:20:00+00:00,271.3347,7.56,14.48,47.84626,-54.09684
2018-06-21 15:30:00+00:00,275.3297,7.58,14.48,47.84626,-54.09684
2018-06-21 15:40:00+00:00,279.8947,7.6,14.56,47.84626,-54.09684
2018-06-21 15:50:00+00:00,287.9997,7.58,14.48,47.84626,-54.09684
2018-06-21 16:00:00+00:00,295.1463,7.52,14.4,47.84626,-54.09684
2018-06-21 16:10:00+00:00,302.843,7.5,14.32,47.84626,-54.09684
2018-06-21 16:20:00+00:00,306.9113,7.5,14.56,47.84626,-54.09684
2018-06-21 16:30:00+00:00,310.8546,7.6,14.56,47.84626,-54.09684
2018-06-21 16:40:00+00:00,314.4597,7.6,14.56,47.84626,-54.09684
2018-06-21 16:50:00+00:00,318.4429,7.4,14.56,47.84626,-54.09684
2018-06-21 17:00:00+00:00,324.463,7.4,14.4,47.84626,-54.09684
2018-06-21 17:10:00+00:00,327.968,7.4,14.24,47.84626,-54.09684
2018-06-21 17:20:00+00:00,328.2996,7.4,14.32,47.84626,-54.09684
2018-06-21 17:30:00+00:00,329.933,7.3,14.32,47.84626,-54.09684
2018-06-21 17:40:00+00:00,332.5363,7.3,14.32,47.84626,-54.09684
2018-06-21 17:50:00+00:00,330.7979,7.3,14.32,47.84626,-54.09684
2018-06-21 18:00:00+00:00,330.983,7.3,14.24,47.84626,-54.09684
2018-06-21 18:10:00+00:00,334.4213,7.3,14.16,47.84626,-54.09684
2018-06-21 18:20:00+00:00,333.2429,7.3,14.24,47.84626,-54.09684
2018-06-21 18:30:00+00:00,331.9379,7.3,14.24,47.84626,-54.09684
2018-06-21 18:40:00+00:00,335.6497,7.3,14.24,47.84626,-54.09684
2018-06-21 18:50:00+00:00,338.4813,7.3,14.24,47.84626,-54.09684
2018-06-21 19:00:00+00:00,335.8663,7.29,14.16,47.84626,-54.09684
2018-06-21 19:10:00+00:00,332.8897,7.3,14.08,47.84626,-54.09684
2018-06-21 19:20:00+00:00,329.3713,7.3,14.08,47.84626,-54.09684
2018-06-21 19:30:00+00:00,329.4014,7.3,14.16,47.84626,-54.09684
2018-06-21 19:40:00+00:00,328.073,7.32,14.16,47.84626,-54.09684
2018-06-21 19:50:00+00:00,324.428,7.36,14.16,47.84626,-54.09684
2018-06-21 20:00:00+00:00,319.7029,7.39,14.08,47.84626,-54.09684
2018-06-21 20:10:00+00:00,314.1946,7.4,14.0,47.84626,-54.09684
2018-06-21 20:20:00+00:00,308.2664,7.4,14.0,47.84626,-54.09684
2018-06-21 20:30:00+00:00,304.823,7.4,14.0,47.84626,-54.09684
2018-06-21 20:40:00+00:00,296.313,7.4,14.0,47.84626,-54.09684
2018-06-21 20:50:00+00:00,287.1147,7.47,14.0,47.84626,-54.09684
2018-06-21 21:00:00+00:00,286.3281,7.49,13.92,47.84626,-54.09684
2018-06-21 21:10:00+00:00,282.2264,7.5,13.76,47.84626,-54.09684
2018-06-21 21:20:00+00:00,268.2697,7.6,13.76,47.84626,-54.09684
2018-06-21 21:30:00+00:00,259.5597,7.7,13.68,47.84626,-54.09684
2018-06-21 21:40:00+00:00,257.9747,7.8,13.68,47.84626,-54.09684
2018-06-21 21:50:00+00:00,253.3631,7.81,13.68,47.84626,-54.09684
2018-06-21 22:00:00+00:00,245.4197,7.9,13.6,47.84626,-54.09684
2018-06-21 22:10:00+00:00,242.6115,7.9,13.44,47.84626,-54.09684
2018-06-21 22:20:00+00:00,238.8331,7.9,13.44,47.84626,-54.09684
2018-06-21 22:30:00+00:00,231.5481,7.9,13.44,47.84626,-54.09684
2018-06-21 22:40:00+00:00,228.4731,7.9,13.44,47.84626,-54.09684
2018-06-21 22:50:00+00:00,229.8497,7.96,13.37,47.84626,-54.09684
2018-06-21 23:00:00+00:00,227.1815,8.0,13.29,47.84626,-54.09684
2018-06-21 23:10:00+00:00,221.3131,8.0,13.21,47.84626,-54.09684
2018-06-21 23:20:00+00:00,221.5581,8.0,13.21,47.84626,-54.09684
2018-06-21 23:30:00+00:00,221.5631,8.05,13.21,47.84626,-54.09684
2018-06-21 23:40:00+00:00,215.1665,8.1,13.13,47.84626,-54.09684
2018-06-21 23:50:00+00:00,212.8631,8.1,13.05,47.84626,-54.09684
